Showing default

CONNECTA IOT-12, 64553

Orbit data source: Space-Track

CONNECTA IOT-12, 64553 is a payload satellite owned by Plan-S (TR) in SSO that was launched on Mon, 23 Jun 2025 UTC via an FALCON 9 launch vehicle from the Air Force Western Test Range (AFWTR). Payload-class satellites include a variety of spacecraft equipped with specific instruments for various scientific and technological missions. These include communications satellites like Starlink; space stations such as the ISS; scientific satellites like the Hubble; Earth observation satellites from companies like Planet Labs, Umbra, and HawkEye 360; GPS; miniature CubeSats for education and research; and military/defense satellites.

Loading next visibility...
Identifier
64553, 2025-135AB
Orbit
SSO
Country
Flag of UnknownUnknown / TURK
Related business
Manufacturer
Plan-S
Mission
Operational Commercial Communications
Bus & Motor
CUBESAT 6U, Unknown motor
Mass
10 kg wet, 10 kg dry
Launch date (UTC)
2025-06-23 (5 months ago)
Launch vehicle
FALCON 9
Launch site
Air Force Western Test Range (AFWTR)
Object type
Payload
Rocket body
Debris
Shape & HBR
Box, 0.1 m
Radar Cross Section
0.080 m², Medium (>0.1 m² and < 1m²)

Expand to show TLE details & history
Last TLE update: 8 hours ago

TLE from 8 hours ago
0 CONNECTA IOT-12
1 64553U 25135AB  25312.11249140  .00009961  00000-0  47044-3 0  9991
2 64553  97.4607  64.7346 0002582  97.4121 262.7407 15.19622790 21271
Epoch: 2025-11-08T02:41Z
TLE epoch observation values (Epoch: 2025-11-08T02:41:59.256Z)
Latitude
-0.00008°
Longitude
-23.30907°
Altitude
510.293 km
Speed
7.609 km/s
True Right ascension
04h 18m 56s
True Declination
0° 00' 00"
Sunlit
Object was in full shadow at epoch
Visualization orbit readout
Latitude
Unknown
Longitude
Unknown
Altitude
Unknown
Speed
Unknown
Apparent Right ascension
Unknown
Apparent Declination
Unknown
Sunlit
N/A
Visualization observer readout
Local Sidereal Time
06:31:02
Azimuth
Unknown
Elevation
Unknown
Doppler factor
Unknown
Orbital elements
Apogee altitude
505.725 km
Perigee altitude
502.171 km
Semi-major axis
6,882.085 km
Eccentricity
0.00026
Inclination
97.4607°
RAAN
64.7346°
Arg. of periapsis
97.4121°
True anomaly
262.71135°
Mean anomaly
262.7407°
Eccentric anomaly
262.72603°
Mean motion
3.80157 °/min
Orbital period
94.7 mins
BSTAR
0.00047044
Loading maneuver chart data...
Computing Atmospheric mass density...
Loading historical data...
Loading historical data...
Loading historical data...
Loading historical data...
Loading historical data...
Loading historical data...
Loading historical data...

Documentation

Showing up to 5 results
|